KD8BMB Weather Reports


time (UTC)temp
C
wind
direction
speed
KPH
gust
KPH
rain 1hr
cm
rain 24hr
cm
rain mn
cm
humidity
%
barometer
mb
20260905115057 19 85 0.0 1.6 0.00 0.00 0.00 98 1014.7
20260905114556 19 60 0.0 0.0 0.00 0.00 0.00 98 1014.7
20260905114055 19 63 4.8 4.8 0.00 0.00 0.00 98 1014.6
20260905113550 19 78 1.6 1.6 0.00 0.00 0.00 99 1014.5
20260905113045 18 81 3.2 4.8 0.00 0.00 0.00 99 1014.6
20260905112541 19 27 1.6 3.2 0.00 0.00 0.00 99 1014.3
20260905112036 18 61 1.6 1.6 0.00 0.00 0.00 99 1014.3
20260905111531 18 70 3.2 3.2 0.00 0.00 0.00 99 1014.2
20260905111030 18 57 0.0 0.0 0.00 0.00 0.00 99 1014.3
20260905110529 18 145 3.2 3.2 0.00 0.00 0.00 99 1014.5
20260905110025 18 69 0.0 1.6 0.00 0.00 0.00 99 1014.5
20260905105519 18 74 4.8 8.0 0.00 0.00 0.00 99 1014.6
20260905105018 18 74 0.0 0.0 0.00 0.00 0.00 99 1014.6
20260905104515 18 29 0.0 0.0 0.00 0.00 0.00 99 1014.5
20260905104014 18 60 0.0 0.0 0.00 0.00 0.00 99 1014.6
20260905103509 18 316 0.0 0.0 0.00 0.00 0.00 99 1014.6
20260905103005 18 123 0.0 0.0 0.00 0.00 0.00 99 1014.3
20260905102501 18 26 0.0 0.0 0.00 0.00 0.00 99 1014.4
20260905101956 18 57 0.0 0.0 0.00 0.00 0.00 99 1014.3
20260905101455 18 51 1.6 3.2 0.00 0.00 0.00 99 1014.4
20260905100954 18 221 1.6 3.2 0.00 0.00 0.00 99 1014.4
20260905100450 18 42 0.0 1.6 0.00 0.00 0.00 99 1014.2
20260905095949 18 83 1.6 3.2 0.00 0.00 0.00 99 1014.4
20260905095444 18 51 1.6 4.8 0.00 0.00 0.00 99 1014.4
20260905094939 18 72 0.0 1.6 0.00 0.00 0.00 99 1014.4
20260905094435 18 72 0.0 0.0 0.00 0.00 0.00 99 1014.6
20260905093933 18 42 0.0 0.0 0.00 0.00 0.00 99 1014.5
20260905093429 18 74 0.0 0.0 0.00 0.00 0.00 99 1014.6
20260905092924 18 50 0.0 0.0 0.00 0.00 0.00 99 1014.5
20260905092420 18 89 0.0 0.0 0.00 0.00 0.00 99 1014.3
20260905091914 18 17 0.0 0.0 0.00 0.00 0.00 99 1014.3
20260905091409 18 353 0.0 0.0 0.00 0.00 0.00 99 1014.5
20260905090908 18 311 0.0 0.0 0.00 0.00 0.00 99 1014.5
20260905090404 18 152 0.0 0.0 0.00 0.00 0.00 99 1014.5
20260905085903 18 288 0.0 0.0 0.00 0.00 0.00 99 1014.5
20260905085357 18 4 0.0 0.0 0.00 0.00 0.00 99 1014.5
20260905084853 18 323 0.0 0.0 0.00 0.00 0.00 99 1014.5
20260905084352 18 8 0.0 0.0 0.00 0.00 0.00 99 1014.5
20260905083847 18 336 0.0 0.0 0.00 0.00 0.00 99 1014.2
20260905083343 18 314 0.0 0.0 0.00 0.00 0.00 99 1014.2
20260905082838 18 56 0.0 0.0 0.00 0.00 0.00 99 1014.2
20260905082334 18 53 0.0 0.0 0.00 0.00 0.00 99 1014.3
20260905081829 18 42 0.0 0.0 0.00 0.00 0.00 99 1014.7
20260905081324 18 326 0.0 0.0 0.00 0.00 0.00 99 1014.5
20260905080823 18 270 0.0 0.0 0.00 0.00 0.00 99 1014.5
20260905080318 18 80 1.6 1.6 0.00 0.00 0.00 99 1014.6
20260905075816 18 22 0.0 0.0 0.00 0.00 0.00 99 1014.5
20260905075311 18 277 0.0 0.0 0.00 0.00 0.00 99 1014.1
20260905074809 18 181 0.0 0.0 0.00 0.00 0.00 99 1014.4
20260905074305 18 42 0.0 0.0 0.00 0.00 0.00 99 1014.0
20260905073800 18 70 1.6 1.6 0.00 0.00 0.00 99 1014.2
20260905073255 18 89 0.0 1.6 0.00 0.00 0.00 99 1014.0
20260905072750 18 340 0.0 0.0 0.00 0.00 0.00 99 1014.1
20260905072246 18 63 0.0 0.0 0.00 0.00 0.00 99 1013.9
20260905071742 18 66 0.0 0.0 0.00 0.00 0.00 99 1013.9
20260905071238 18 308 0.0 0.0 0.00 0.00 0.00 99 1013.8
20260905070733 18 78 1.6 1.6 0.00 0.00 0.00 99 1013.9
20260905070229 18 70 0.0 0.0 0.00 0.00 0.00 99 1013.8
20260905065727 18 84 0.0 0.0 0.00 0.00 0.00 99 1013.7
20260905065221 18 49 0.0 0.0 0.00 0.00 0.00 99 1013.8
20260905064717 18 67 1.6 3.2 0.00 0.00 0.00 99 1013.7
20260905064213 18 11 1.6 3.2 0.00 0.00 0.00 99 1013.5
20260905063711 18 68 0.0 1.6 0.00 0.00 0.00 99 1013.9
20260905063207 18 308 0.0 0.0 0.00 0.00 0.00 99 1014.0
20260905062703 18 9 0.0 0.0 0.00 0.00 0.00 99 1014.0
20260905062202 18 52 0.0 0.0 0.00 0.00 0.00 99 1014.1
20260905061702 18 43 0.0 0.0 0.00 0.00 0.00 99 1013.9
20260905061156 18 43 0.0 1.6 0.00 0.00 0.00 99 1014.1
20260905060652 18 29 0.0 0.0 0.00 0.00 0.00 99 1014.2
20260905060148 18 32 0.0 1.6 0.00 0.00 0.00 99 1014.2
20260905055647 18 74 0.0 0.0 0.00 0.00 0.00 99 1014.3
20260905055142 18 80 3.2 3.2 0.00 0.00 0.00 99 1014.2
20260905054638 18 75 0.0 1.6 0.00 0.00 0.00 99 1014.4
20260905054133 18 58 0.0 0.0 0.00 0.00 0.00 99 1014.4
20260905053632 18 148 0.0 1.6 0.00 0.00 0.00 99 1014.4
20260905053128 18 73 0.0 1.6 0.00 0.00 0.00 99 1014.4
20260905052627 18 71 1.6 1.6 0.00 0.00 0.00 99 1014.4
20260905052121 18 57 1.6 3.2 0.00 0.00 0.00 99 1014.5
20260905051617 19 71 0.0 1.6 0.00 0.00 0.00 99 1014.5
20260905051114 19 51 0.0 0.0 0.00 0.00 0.00 99 1014.4
20260905050604 19 33 0.0 0.0 0.00 0.00 0.00 99 1014.5
20260905050101 19 51 0.0 0.0 0.00 0.00 0.00 99 1014.4
20260905045554 19 26 0.0 0.0 0.00 0.00 0.00 99 1014.2
20260905045050 19 79 0.0 0.0 0.00 0.00 0.00 99 1014.0
20260905044550 19 68 0.0 1.6 0.00 0.00 0.00 99 1014.0
20260905044044 19 74 1.6 1.6 0.00 0.00 0.00 99 1014.1
20260905043544 19 92 0.0 0.0 0.00 0.00 0.00 99 1014.0
20260905043039 19 120 1.6 1.6 0.00 0.00 0.00 99 1014.2
20260905042538 19 48 0.0 0.0 0.00 0.00 0.00 99 1014.2
20260905042033 19 5 0.0 0.0 0.00 0.00 0.00 99 1014.4
20260905041528 20 108 0.0 0.0 0.00 0.00 0.00 99 1014.3
20260905041024 20 332 0.0 0.0 0.00 0.00 0.00 99 1014.2
20260905040523 20 47 0.0 0.0 0.00 0.00 0.00 99 1014.4
20260905040022 20 21 0.0 0.0 0.00 0.18 0.18 99 1014.4
20260905035517 20 78 0.0 1.6 0.00 0.18 0.18 99 1014.4
20260905035015 20 72 1.6 1.6 0.00 0.18 0.18 99 1014.6
20260905034510 20 66 0.0 1.6 0.00 0.18 0.18 99 1014.5
20260905034009 20 55 1.6 3.2 0.00 0.18 0.18 99 1014.5
20260905033503 20 126 4.8 4.8 0.00 0.18 0.18 99 1014.6
20260905032958 20 260 0.0 0.0 0.00 0.18 0.18 99 1014.4
20260905032454 20 78 0.0 1.6 0.00 0.18 0.18 99 1014.5
20260905031948 20 42 0.0 0.0 0.00 0.18 0.18 99 1014.6
20260905031445 20 101 0.0 1.6 0.00 0.18 0.18 99 1014.6
20260905030939 20 355 0.0 0.0 0.00 0.18 0.18 99 1014.6
20260905030435 20 56 0.0 1.6 0.00 0.18 0.18 99 1014.5
20260905025933 21 66 0.0 0.0 0.00 0.18 0.18 99 1014.7
20260905025429 21 76 0.0 1.6 0.00 0.18 0.18 99 1014.6
20260905024926 21 71 4.8 8.0 0.00 0.18 0.18 99 1015.0
20260905024426 21 51 0.0 0.0 0.00 0.18 0.18 99 1014.8
20260905023921 21 69 0.0 0.0 0.00 0.18 0.18 99 1014.8
20260905023416 21 72 0.0 0.0 0.00 0.18 0.18 99 1015.1
20260905022915 21 71 1.6 4.8 0.00 0.18 0.18 99 1014.9
20260905022411 21 77 0.0 0.0 0.00 0.18 0.18 99 1015.0
20260905021906 21 52 0.0 0.0 0.00 0.18 0.18 99 1014.9
20260905021400 21 57 0.0 0.0 0.00 0.18 0.18 99 1015.0
20260905020856 21 74 0.0 1.6 0.00 0.18 0.18 99 1015.2
20260905020349 21 127 1.6 3.2 0.00 0.18 0.18 99 1014.9
20260905015844 21 89 0.0 0.0 0.00 0.18 0.18 99 1014.9
20260905015343 21 77 0.0 0.0 0.00 0.18 0.18 99 1014.9
20260905014837 21 340 0.0 0.0 0.00 0.18 0.18 99 1014.8
20260905014332 21 72 0.0 0.0 0.00 0.18 0.18 99 1014.7
20260905013828 21 73 1.6 3.2 0.00 0.18 0.18 99 1014.7
20260905013324 21 71 0.0 0.0 0.00 0.18 0.18 99 1015.0
20260905012819 21 72 0.0 0.0 0.00 0.18 0.18 99 1015.0
20260905012315 21 328 0.0 0.0 0.00 0.18 0.18 99 1015.0
20260905011811 21 78 0.0 1.6 0.00 0.18 0.18 99 1014.8
20260905011307 21 68 0.0 1.6 0.00 0.18 0.18 99 1014.8
20260905010807 22 64 0.0 1.6 0.00 0.18 0.18 99 1014.6
20260905010302 22 54 0.0 0.0 0.00 0.18 0.18 99 1014.6
20260905005758 22 74 3.2 4.8 0.00 0.18 0.18 99 1014.3
20260905005253 22 68 3.2 4.8 0.00 0.18 0.18 99 1014.4
20260905004753 22 58 6.4 9.7 0.00 0.18 0.18 99 1014.4
20260905004247 22 75 1.6 1.6 0.00 0.18 0.18 99 1014.3
20260905003743 22 94 4.8 8.0 0.00 0.18 0.18 98 1014.4
20260905003238 22 93 4.8 8.0 0.00 0.18 0.18 98 1014.2
20260905002734 22 72 4.8 4.8 0.00 0.18 0.18 98 1014.1
20260905002234 22 46 4.8 8.0 0.00 0.18 0.18 97 1014.0
20260905001729 23 61 1.6 4.8 0.00 0.18 0.18 97 1014.1
20260905001228 23 68 1.6 3.2 0.00 0.18 0.18 97 1013.9
20260905000724 23 320 0.0 0.0 0.00 0.18 0.18 96 1014.1
20260905000219 23 64 3.2 3.2 0.00 0.18 0.18 96 1013.8
20260904235715 23 320 0.0 0.0 0.00 0.18 0.18 95 1013.9
20260904235209 23 71 0.0 0.0 0.00 0.18 0.18 95 1013.8
20260904234703 23 61 0.0 0.0 0.00 0.18 0.18 95 1014.0
20260904234159 23 28 0.0 0.0 0.00 0.18 0.18 95 1014.0
20260904233655 23 335 0.0 0.0 0.00 0.18 0.18 94 1013.7
20260904233150 23 58 0.0 1.6 0.00 0.18 0.18 94 1013.9
20260904232647 24 10 3.2 8.0 0.00 0.18 0.18 94 1013.7
20260904232143 24 56 1.6 1.6 0.00 0.18 0.18 94 1013.7
20260904231638 24 302 1.6 3.2 0.00 0.18 0.18 94 1013.8
20260904231133 24 13 1.6 1.6 0.00 0.18 0.18 94 1013.9
20260904230632 24 5 1.6 3.2 0.00 0.18 0.18 93 1013.5
20260904230128 25 338 3.2 8.0 0.00 0.18 0.18 93 1013.3
20260904225626 25 112 4.8 8.0 0.00 0.18 0.18 93 1013.4
20260904225120 25 52 0.0 0.0 0.00 0.18 0.18 92 1013.3
20260904224615 25 74 1.6 3.2 0.00 0.18 0.18 92 1013.3
20260904224110 25 305 0.0 0.0 0.00 0.18 0.18 91 1013.0
20260904223609 25 38 0.0 0.0 0.00 0.18 0.18 90 1013.1
20260904223105 26 54 1.6 3.2 0.00 0.18 0.18 86 1013.2
20260904222601 26 354 0.0 0.0 0.00 0.18 0.18 85 1012.7
20260904222056 26 208 0.0 0.0 0.00 0.18 0.18 85 1013.0
20260904221556 26 319 1.6 1.6 0.00 0.18 0.18 84 1013.0
20260904221056 26 345 0.0 0.0 0.00 0.18 0.18 84 1012.7
20260904220550 26 325 0.0 0.0 0.00 0.18 0.18 84 1013.0
20260904220046 26 285 0.0 0.0 0.00 0.18 0.18 83 1012.9
20260904215545 26 305 0.0 0.0 0.00 0.18 0.18 84 1012.9
20260904215036 26 285 0.0 0.0 0.00 0.18 0.18 82 1012.7
20260904214531 26 314 0.0 0.0 0.00 0.18 0.18 82 1012.7
20260904214026 26 14 0.0 0.0 0.00 0.18 0.18 84 1012.9
20260904213524 26 326 0.0 0.0 0.00 0.18 0.18 83 1012.6
20260904213016 26 310 0.0 1.6 0.00 0.18 0.18 83 1012.6
20260904212515 26 315 3.2 4.8 0.00 0.18 0.18 82 1013.0
20260904212010 26 290 0.0 0.0 0.00 0.18 0.18 82 1012.6
20260904211504 26 54 0.0 0.0 0.00 0.18 0.18 81 1012.7
20260904211000 27 336 0.0 0.0 0.00 0.18 0.18 80 1012.5
20260904210459 27 295 0.0 0.0 0.00 0.18 0.18 80 1012.5
20260904205955 26 290 0.0 0.0 0.00 0.18 0.18 80 1012.4
20260904205450 27 238 0.0 1.6 0.00 0.18 0.18 79 1012.6
20260904204947 26 334 0.0 0.0 0.00 0.18 0.18 82 1012.6
20260904204443 26 257 3.2 3.2 0.00 0.18 0.18 83 1012.6
20260904203939 26 226 3.2 8.0 0.00 0.18 0.18 83 1013.0
20260904203435 26 242 1.6 3.2 0.00 0.18 0.18 83 1013.1
20260904202930 25 292 1.6 3.2 0.00 0.18 0.18 84 1012.7
20260904202426 26 217 0.0 1.6 0.00 0.18 0.18 85 1012.7
20260904201922 26 244 3.2 4.8 0.00 0.18 0.18 83 1012.7
20260904201417 26 250 3.2 4.8 0.00 0.18 0.18 82 1012.6
20260904200913 26 329 0.0 0.0 0.00 0.18 0.18 83 1012.6
20260904200411 25 232 0.0 1.6 0.00 0.18 0.18 84 1012.9
20260904195907 26 304 3.2 3.2 0.00 0.18 0.18 82 1012.7
20260904195404 26 305 3.2 3.2 0.00 0.18 0.18 83 1013.0
20260904194859 26 331 1.6 3.2 0.00 0.18 0.18 83 1013.1
20260904194359 26 288 0.0 0.0 0.00 0.18 0.18 83 1013.1
20260904193854 26 343 0.0 0.0 0.00 0.18 0.18 83 1013.2
20260904193349 26 247 3.2 4.8 0.00 0.18 0.18 82 1013.2
20260904192844 26 214 1.6 3.2 0.00 0.18 0.18 82 1013.4
20260904192340 26 266 1.6 3.2 0.00 0.18 0.18 82 1013.3
20260904191836 25 300 3.2 4.8 0.00 0.18 0.18 82 1013.5
20260904191332 26 235 4.8 8.0 0.00 0.18 0.18 84 1013.6
20260904190829 26 306 1.6 3.2 0.00 0.18 0.18 84 1013.5
20260904190324 25 298 0.0 0.0 0.00 0.18 0.18 86 1013.5
20260904185820 26 298 1.6 3.2 0.00 0.18 0.18 86 1013.5
20260904185316 25 277 0.0 1.6 0.00 0.18 0.18 88 1013.4
20260904184815 25 290 1.6 3.2 0.00 0.18 0.18 89 1013.4
20260904184310 25 262 0.0 0.0 0.00 0.18 0.18 89 1013.6
20260904183805 25 295 0.0 0.0 0.00 0.18 0.18 91 1013.5
20260904183300 25 259 0.0 0.0 0.00 0.18 0.18 90 1013.5
20260904182755 25 293 1.6 1.6 0.00 0.18 0.18 92 1013.6
20260904182250 24 280 1.6 1.6 0.00 0.18 0.18 93 1013.6
20260904181746 24 304 0.0 0.0 0.00 0.18 0.18 94 1013.7
20260904181246 24 226 0.0 1.6 0.00 0.18 0.18 95 1013.4
20260904180741 24 307 0.0 0.0 0.00 0.18 0.18 96 1013.5
20260904180237 24 320 0.0 3.2 0.00 0.18 0.18 95 1013.7
20260904175735 24 69 0.0 0.0 0.00 0.18 0.18 96 1013.8
20260904175234 23 272 0.0 0.0 0.00 0.18 0.18 98 1013.7
20260904174729 23 294 0.0 0.0 0.00 0.18 0.18 99 1013.6
20260904174225 23 289 0.0 0.0 0.00 0.18 0.18 99 1013.7
20260904173721 22 277 1.6 3.2 0.00 0.18 0.18 99 1013.8
20260904173220 22 296 0.0 0.0 0.00 0.18 0.18 99 1013.9
20260904172717 22 287 0.0 0.0 0.00 0.18 0.18 99 1014.1
20260904172216 22 270 0.0 0.0 0.00 0.18 0.18 99 1014.0
20260904171712 22 323 3.2 4.8 0.00 0.18 0.18 99 1014.1
20260904171206 22 262 0.0 0.0 0.00 0.18 0.18 99 1013.9
20260904170703 22 355 0.0 0.0 0.00 0.18 0.18 99 1014.0
20260904170159 22 299 0.0 0.0 0.00 0.18 0.18 99 1013.8
20260904165657 22 296 0.0 0.0 0.00 0.18 0.18 99 1013.9
20260904165157 22 253 0.0 0.0 0.00 0.18 0.18 99 1013.7
20260904164652 22 253 0.0 0.0 0.00 0.18 0.18 99 1014.1
20260904164147 22 334 1.6 3.2 0.00 0.18 0.18 99 1014.0
20260904163642 22 302 0.0 0.0 0.00 0.18 0.18 99 1014.0
20260904163132 22 50 0.0 0.0 0.00 0.18 0.18 99 1014.0
20260904162631 22 280 0.0 0.0 0.00 0.18 0.18 99 1013.9
20260904162126 22 249 0.0 0.0 0.00 0.18 0.18 99 1014.3
20260904161622 21 307 0.0 0.0 0.00 0.18 0.18 99 1014.2
20260904161116 21 330 0.0 0.0 0.00 0.18 0.18 99 1014.4
20260904160612 21 254 0.0 0.0 0.00 0.18 0.18 99 1014.6
20260904160108 21 37 0.0 0.0 0.00 0.18 0.18 99 1014.7
20260904155602 21 334 0.0 0.0 0.00 0.18 0.18 99 1014.8
20260904155056 21 54 0.0 0.0 0.00 0.18 0.18 99 1014.9
20260904154550 21 305 3.2 3.2 0.00 0.18 0.18 99 1015.0
20260904154045 21 288 0.0 0.0 0.00 0.18 0.18 99 1014.9
20260904153544 21 300 1.6 1.6 0.00 0.18 0.18 99 1015.2
20260904153041 21 299 0.0 1.6 0.00 0.18 0.18 99 1015.3
20260904152536 21 296 0.0 1.6 0.00 0.18 0.18 99 1015.4
20260904152032 21 328 0.0 0.0 0.00 0.18 0.18 99 1015.2
20260904151526 21 257 0.0 0.0 0.00 0.18 0.18 99 1015.4
20260904151020 21 338 0.0 0.0 0.00 0.18 0.18 99 1015.5
20260904150515 20 315 0.0 0.0 0.00 0.18 0.18 99 1015.5
20260904150010 20 293 0.0 0.0 0.00 0.18 0.18 99 1015.5
20260904145504 20 308 0.0 0.0 0.00 0.18 0.18 99 1015.5
20260904144959 20 280 0.0 0.0 0.00 0.18 0.18 99 1015.6
20260904144455 20 205 0.0 0.0 0.00 0.18 0.18 99 1015.5
20260904143950 20 239 0.0 0.0 0.00 0.18 0.18 99 1015.8
20260904143446 20 25 0.0 0.0 0.00 0.18 0.18 99 1015.2
20260904142942 20 320 0.0 0.0 0.00 0.18 0.18 99 1015.2
20260904142439 20 313 0.0 0.0 0.00 0.18 0.18 99 1015.2
20260904141933 20 314 0.0 0.0 0.00 0.18 0.18 99 1015.4
20260904141428 20 352 0.0 0.0 0.00 0.18 0.18 99 1015.2
20260904140925 20 60 0.0 0.0 0.18 0.18 0.18 99 1014.8
20260904140425 20 13 0.0 0.0 0.18 0.18 0.18 99 1014.6
20260904135924 20 140 0.0 0.0 0.18 0.18 0.18 99 1014.8
20260904135424 20 67 0.0 0.0 0.00 0.15 0.15 99 1014.8
20260904134920 20 338 0.0 0.0 0.00 0.15 0.15 99 1015.1
20260904134420 20 310 0.0 0.0 0.13 0.15 0.15 99 1015.1
20260904133915 20 36 0.0 0.0 0.00 0.13 0.13 99 1015.1
20260904133414 19 329 0.0 0.0 0.00 0.13 0.13 99 1015.5
20260904132910 19 283 0.0 0.0 0.00 0.13 0.13 99 1015.4
20260904132405 19 287 0.0 0.0 0.00 0.13 0.13 99 1015.5
20260904131904 19 320 0.0 0.0 0.00 0.13 0.13 99 1015.8
20260904131400 19 308 0.0 0.0 0.00 0.13 0.13 99 1015.8
20260904130855 19 271 0.0 0.0 0.00 0.13 0.13 99 1015.8
20260904130354 19 278 0.0 0.0 0.00 0.13 0.13 99 1015.9
20260904125849 19 294 0.0 0.0 0.00 0.13 0.13 99 1016.0
20260904125346 19 306 0.0 0.0 0.00 0.13 0.13 99 1015.9
20260904124845 19 310 0.0 0.0 0.00 0.13 0.13 99 1016.1
20260904124342 19 340 0.0 0.0 0.18 0.13 0.13 99 1016.0
20260904123836 19 294 0.0 0.0 0.18 0.13 0.13 99 1015.8
20260904123332 19 289 0.0 0.0 0.18 0.10 0.10 99 1015.4
20260904122826 19 276 0.0 0.0 0.18 0.10 0.10 99 1015.2
20260904122321 19 289 0.0 0.0 0.00 0.08 0.08 99 1015.1
20260904121816 19 15 0.0 0.0 0.13 0.08 0.08 99 1015.0
20260904121312 19 307 0.0 0.0 0.13 0.08 0.08 99 1015.4
20260904120809 19 286 0.0 0.0 0.18 0.05 0.05 99 1015.4
20260904120304 19 315 0.0 0.0 0.18 0.05 0.05 99 1015.6
20260904115759 19 305 0.0 0.0 0.00 0.03 0.03 99 1015.2